When you browse on this site, cookies collect data to enhance your experience and personalize the content and advertising you see.
Visit our Privacy Policy to learn more. By continuing to use the site, you agree to this use of cookies and data.
  • In Romania
  • List of Countries
  • For 7 days
  • Water Temperature
  • Weather Map
  • Weather Widgets
  • user-avatar
    Login

    Hourly Weather Napoli

    Today, 22 February, Saturday

    Time Temperature Precipitation Wind Pressure Humidity
    00:00 +10°C° 0 mm 3 mps 767 mmHg 53%
    01:00 +10°C° 0 mm 3 mps 767 mmHg 50%
    02:00 +9°C° 0 mm 3 mps 767 mmHg 54%
    03:00 +8°C° 0 mm 4 mps 767 mmHg 57%
    04:00 +8°C° 0 mm 4 mps 768 mmHg 60%
    05:00 +8°C° 0 mm 4 mps 768 mmHg 56%
    06:00 +7°C° 0 mm 4 mps 768 mmHg 51%
    07:00 +7°C° 0 mm 5 mps 769 mmHg 46%
    08:00 +8°C° 0 mm 4 mps 769 mmHg 41%
    09:00 +11°C° 0 mm 4 mps 769 mmHg 37%
    10:00 +12°C° 0 mm 4 mps 770 mmHg 33%
    11:00 +13°C° 0 mm 4 mps 770 mmHg 32%
    12:00 +14°C° 0 mm 3 mps 770 mmHg 31%
    13:00 +16°C° 0 mm 3 mps 770 mmHg 30%
    14:00 +16°C° 0 mm 3 mps 770 mmHg 30%
    15:00 +16°C° 0 mm 3 mps 770 mmHg 31%
    16:00 +16°C° 0 mm 3 mps 770 mmHg 32%
    17:00 +14°C° 0 mm 3 mps 770 mmHg 35%
    18:00 +14°C° 0 mm 2 mps 770 mmHg 38%
    19:00 +13°C° 0 mm 2 mps 770 mmHg 41%
    20:00 +12°C° 0 mm 2 mps 771 mmHg 41%
    21:00 +12°C° 0 mm 2 mps 771 mmHg 41%
    22:00 +10°C° 0 mm 2 mps 771 mmHg 41%
    23:00 +10°C° 0 mm 2 mps 771 mmHg 42%

    Tomorrow, 23 February, Sunday

    Time Temperature Precipitation Wind Pressure Humidity
    00:00 +10°C° 0 mm 2 mps 771 mmHg 42%
    01:00 +11°C° 0 mm 1 mps 771 mmHg 43%
    02:00 +10°C° 0 mm 1 mps 771 mmHg 43%
    03:00 +10°C° 0 mm 1 mps 770 mmHg 44%
    04:00 +10°C° 0 mm 1 mps 770 mmHg 45%
    05:00 +10°C° 0 mm 1 mps 770 mmHg 46%
    06:00 +10°C° 0 mm 1 mps 770 mmHg 46%
    07:00 +10°C° 0 mm 1 mps 770 mmHg 47%
    08:00 +11°C° 0 mm 1 mps 770 mmHg 46%
    09:00 +13°C° 0 mm 1 mps 770 mmHg 45%
    10:00 +14°C° 0 mm 1 mps 770 mmHg 44%
    11:00 +15°C° 0 mm 2 mps 769 mmHg 46%
    12:00 +16°C° 0 mm 2 mps 769 mmHg 49%
    13:00 +16°C° 0 mm 3 mps 769 mmHg 51%
    14:00 +16°C° 0 mm 3 mps 768 mmHg 54%
    15:00 +15°C° 0 mm 4 mps 768 mmHg 58%
    16:00 +15°C° 0 mm 4 mps 767 mmHg 61%
    17:00 +14°C° 0 mm 4 mps 767 mmHg 66%
    18:00 +13°C° 0 mm 3 mps 767 mmHg 72%
    19:00 +13°C° 0 mm 3 mps 768 mmHg 77%
    20:00 +12°C° 0 mm 3 mps 767 mmHg 80%
    21:00 +12°C° 0 mm 3 mps 767 mmHg 83%
    22:00 +12°C° 0 mm 3 mps 767 mmHg 86%
    23:00 +12°C° 0 mm 3 mps 767 mmHg 86%

    Day after tomorrow, 24 February, Monday

    Time Temperature Precipitation Wind Pressure Humidity
    00:00 +12°C° 0 mm 3 mps 767 mmHg 87%
    01:00 +12°C° 0 mm 3 mps 766 mmHg 87%
    02:00 +13°C° 0 mm 2 mps 766 mmHg 88%
    03:00 +12°C° 0 mm 2 mps 765 mmHg 89%
    04:00 +12°C° 0 mm 1 mps 765 mmHg 90%
    05:00 +12°C° 0 mm 1 mps 765 mmHg 90%
    06:00 +12°C° 0 mm 1 mps 765 mmHg 91%
    07:00 +11°C° 0 mm 1 mps 765 mmHg 91%
    08:00 +12°C° 0 mm 1 mps 765 mmHg 85%
    09:00 +13°C° 0 mm 0 mps 765 mmHg 79%
    10:00 +14°C° 0 mm 0 mps 765 mmHg 73%
    11:00 +15°C° 0 mm 0 mps 764 mmHg 67%
    12:00 +16°C° 0 mm 0 mps 764 mmHg 62%
    13:00 +17°C° 0 mm 0 mps 764 mmHg 57%
    14:00 +19°C° 0 mm 1 mps 764 mmHg 57%
    15:00 +19°C° 0 mm 1 mps 764 mmHg 57%
    16:00 +18°C° 0 mm 2 mps 763 mmHg 57%
    17:00 +18°C° 0 mm 1 mps 763 mmHg 62%
    18:00 +15°C° 0 mm 1 mps 764 mmHg 67%
    19:00 +14°C° 0 mm 1 mps 764 mmHg 73%
    20:00 +14°C° 0 mm 1 mps 764 mmHg 75%
    21:00 +13°C° 0 mm 1 mps 764 mmHg 76%
    22:00 +13°C° 0 mm 1 mps 764 mmHg 78%
    23:00 +13°C° 0 mm 1 mps 763 mmHg 80%

    25 February, Tuesday

    Time Temperature Precipitation Wind Pressure Humidity
    00:00 +13°C° 0 mm 1 mps 763 mmHg 81%
    01:00 +12°C° 0 mm 1 mps 763 mmHg 83%
    02:00 +12°C° 0 mm 1 mps 763 mmHg 84%
    03:00 +12°C° 0 mm 2 mps 762 mmHg 85%
    04:00 +12°C° 0 mm 2 mps 762 mmHg 86%
    05:00 +12°C° 0 mm 2 mps 761 mmHg 85%
    06:00 +12°C° 0 mm 2 mps 761 mmHg 85%
    07:00 +13°C° 0 mm 2 mps 761 mmHg 85%
    08:00 +13°C° 0 mm 2 mps 761 mmHg 81%
    09:00 +14°C° 0 mm 2 mps 761 mmHg 77%
    10:00 +14°C° 0 mm 3 mps 761 mmHg 73%
    11:00 +14°C° 0 mm 3 mps 760 mmHg 71%
    12:00 +16°C° 0 mm 3 mps 760 mmHg 68%
    13:00 +15°C° 0 mm 4 mps 759 mmHg 66%
    14:00 +15°C° 0 mm 4 mps 759 mmHg 65%
    15:00 +16°C° 0 mm 3 mps 758 mmHg 64%
    16:00 +16°C° 0 mm 3 mps 758 mmHg 64%
    17:00 +14°C° 0 mm 4 mps 757 mmHg 69%
    18:00 +14°C° 0 mm 4 mps 757 mmHg 73%
    19:00 +13°C° 0 mm 4 mps 757 mmHg 78%
    20:00 +13°C° 0 mm 4 mps 757 mmHg 80%
    21:00 +13°C° 0 mm 4 mps 757 mmHg 81%
    22:00 +13°C° 0 mm 4 mps 756 mmHg 83%
    23:00 +12°C° 0 mm 4 mps 756 mmHg 84%

    26 February, Wednesday

    Time Temperature Precipitation Wind Pressure Humidity
    00:00 +12°C° 0 mm 3 mps 755 mmHg 86%
    01:00 +12°C° 0 mm 3 mps 755 mmHg 87%
    02:00 +12°C° 0 mm 3 mps 754 mmHg 88%
    03:00 +12°C° 0 mm 3 mps 753 mmHg 90%
    04:00 +12°C° 0 mm 3 mps 753 mmHg 91%
    05:00 +12°C° 0.1 mm 4 mps 752 mmHg 88%
    06:00 +12°C° 0.1 mm 5 mps 752 mmHg 85%
    07:00 +12°C° 0.1 mm 5 mps 751 mmHg 82%
    08:00 +12°C° 0.1 mm 7 mps 751 mmHg 74%
    09:00 +13°C° 0.1 mm 8 mps 751 mmHg 66%
    10:00 +15°C° 0.1 mm 9 mps 751 mmHg 59%
    11:00 +14°C° 0 mm 10 mps 751 mmHg 54%
    12:00 +14°C° 0 mm 10 mps 750 mmHg 50%
    13:00 +16°C° 0 mm 11 mps 750 mmHg 46%
    14:00 +16°C° 0 mm 11 mps 750 mmHg 46%
    15:00 +14°C° 0 mm 12 mps 749 mmHg 45%
    16:00 +14°C° 0 mm 12 mps 749 mmHg 45%
    17:00 +13°C° 0.2 mm 12 mps 749 mmHg 48%
    18:00 +11°C° 0.2 mm 11 mps 749 mmHg 51%
    19:00 +8°C° 0.2 mm 10 mps 750 mmHg 55%
    20:00 +7°C° 1.3 mm 10 mps 749 mmHg 62%
    21:00 +6°C° 1.3 mm 10 mps 749 mmHg 70%
    22:00 +5°C° 1.3 mm 10 mps 749 mmHg 77%
    23:00 +6°C° 0.3 mm 10 mps 749 mmHg 69%

    27 February, Thursday

    Time Temperature Precipitation Wind Pressure Humidity
    00:00 +6°C° 0.3 mm 9 mps 749 mmHg 61%
    01:00 +6°C° 0.3 mm 9 mps 749 mmHg 52%
    02:00 +6°C° 0 mm 8 mps 750 mmHg 54%
    03:00 +5°C° 0 mm 7 mps 751 mmHg 57%
    04:00 +5°C° 0 mm 6 mps 751 mmHg 59%
    05:00 +5°C° 0 mm 6 mps 752 mmHg 60%
    06:00 +4°C° 0 mm 6 mps 754 mmHg 61%
    07:00 +4°C° 0 mm 6 mps 755 mmHg 62%
    08:00 +6°C° 0 mm 5 mps 756 mmHg 54%
    09:00 +7°C° 0 mm 5 mps 757 mmHg 47%
    10:00 +8°C° 0 mm 4 mps 758 mmHg 40%
    11:00 +10°C° 0 mm 4 mps 758 mmHg 37%
    12:00 +11°C° 0 mm 4 mps 759 mmHg 34%
    13:00 +12°C° 0 mm 4 mps 759 mmHg 31%
    14:00 +12°C° 0 mm 4 mps 760 mmHg 30%
    15:00 +12°C° 0 mm 5 mps 760 mmHg 29%
    16:00 +12°C° 0 mm 5 mps 760 mmHg 28%
    17:00 +12°C° 0 mm 4 mps 760 mmHg 30%
    18:00 +11°C° 0 mm 4 mps 761 mmHg 33%
    19:00 +10°C° 0 mm 4 mps 761 mmHg 36%
    20:00 +10°C° 0 mm 4 mps 762 mmHg 39%
    21:00 +8°C° 0 mm 4 mps 762 mmHg 42%
    22:00 +8°C° 0 mm 4 mps 762 mmHg 45%
    23:00 +7°C° 0 mm 4 mps 762 mmHg 46%
    Show more